Location: Misciano
(43.5000°N, 11.9500°E)
Time: 16:18:37
(UTC+00:00)

Cosmos 2208 Rocket - Pass Details

Date: 13 August 2020
Orbit: 755 x 805 km, 74.0° (Epoch: 24 September)

Event Time Altitude Azimuth Distance (km) Brightness Sun altitude
Rises 20:42:56 0° 343° (NNW) 3,256 8.4 -22.3°
Reaches altitude 10° 20:45:23 10° 348° (NNW) 2,318 7.3 -22.6°
Maximum altitude 20:50:32 55° 66° (ENE) 914 4.2 -23.2°
Enters shadow 20:51:11 51° 94° (E) 951 4.2 -23.3°
